[[{"header":{"parameterUnit":"m.s-1","parameterCategory":1,"la1":30.2991,"la2":30.254,"lo1":-89.0895,"lo2":-89.0444,"dy":0.0017,"dx":0.0017,"nx":28,"ny":28,"refTime":"2023-08-15T03:00:00:Z","depth":0,"parameterNumber":2,"parameterNumberName":"U-component_of_WINDS"},"data":[0,0,0,0,0,0,0,0,0,0,0,0,0,0,0,0,0,0,0,0,0,0,0,0,0,0,0,0,0,0,0,0,0,0,0,0,0,0,0,0,0,0,0,0,0,0,0,0,0,0,0,0,0,0,0,0,0,0,3.8712,3.8713,0,3.8779,3.878,3.8781,3.874,3.8738,3.8736,3.8734,3.8806,3.881,3.8814,0,0,0,0,0,0,0,0,0,0,0,0,0,3.8552,3.8555,3.8712,3.8713,3.8714,3.8779,3.878,3.8781,3.874,3.8738,3.8735,3.8733,3.8805,3.8809,3.8814,0,0,0,0,0,0,0,0,0,0,0,0,0,3.8621,3.8556,3.8712,3.8701,3.8701,3.8779,3.878,3.8781,3.8741,3.8738,3.8735,3.8732,3.8804,3.8809,3.8815,3.8909,0,0,3.8832,3.8834,0,0,0,0,0,0,0,0,3.8617,3.8627,3.8702,3.8702,3.8702,3.8748,3.875,3.8824,3.8741,3.8726,3.8734,3.8731,3.879,3.8796,3.8815,3.8912,3.8915,3.8832,3.8836,3.8838,3.884,0,0,0,0,0,0,0,3.8612,3.8624,3.8739,3.8703,3.8703,3.8694,3.8701,3.8764,3.8773,3.8727,3.8724,3.8732,3.8789,3.881,3.8817,3.8916,3.8832,3.8837,3.8841,3.8843,3.9097,3.91,0,0,0,0,0,0,3.8608,3.862,3.8737,3.8741,3.8651,3.87,3.8707,3.8736,3.8773,3.8775,3.8735,3.873,3.8802,3.881,3.8819,3.8934,3.8838,3.8843,3.8847,3.9093,3.9098,3.9101,0,0,0,0,0,0,3.8604,3.8618,3.8734,3.868,3.8694,3.8705,3.8739,3.8739,3.876,3.8779,3.878,3.8754,3.88,3.8811,3.8887,3.8936,3.8846,3.8851,3.909,3.9095,3.9099,3.9163,0,0,0,0,0,0,3.86,3.8618,3.8652,3.8681,3.8697,3.8799,3.8742,3.8743,3.877,3.8764,3.8797,3.88,3.8798,3.8879,3.8893,3.8942,3.8855,3.9085,3.9092,3.9098,3.9156,3.9169,3.918,0,0,0,0,0,3.8594,3.8667,3.8654,3.8668,3.874,3.8802,3.8811,3.8807,3.8774,3.8809,3.8822,3.8799,3.8928,3.8887,3.8902,3.8954,3.9082,3.909,3.9097,3.9151,3.9167,3.918,0,0,0,0,0,0,3.8644,3.867,3.8656,3.874,3.8769,3.8795,3.884,3.8824,3.8863,3.8857,3.8851,3.8859,3.8939,3.8954,3.8908,3.9048,3.9,3.9011,3.9036,3.9051,3.9062,3.9058,3.886,0,0,0,0,0,3.8665,3.8712,3.8733,3.8805,3.882,3.8828,3.8855,3.8849,3.8879,3.8892,3.8909,3.8941,3.8989,3.902,3.9065,3.9158,3.9166,3.9201,3.9213,3.9223,3.9233,3.9286,3.9303,3.9126,3.9126,3.9126,0,0,3.8708,3.8728,3.8758,3.8815,3.8837,3.8888,3.8838,3.8893,3.8932,3.89,3.8974,3.8988,3.9023,3.9109,3.9147,3.9124,3.9284,3.9233,3.924,3.9245,3.9296,3.9312,3.9327,3.9131,3.913,3.9129,0,0,3.8813,3.8832,3.8895,3.8919,3.8953,3.8958,3.8973,3.9002,3.9011,3.9084,3.9062,3.9108,3.919,3.9217,3.9241,3.9359,3.9341,3.9374,3.9437,3.9489,3.9503,3.9516,3.956,3.9576,3.9384,3.9384,3.9384,0,3.8863,3.8937,3.893,3.8988,3.9015,3.8989,3.9054,3.9078,3.9125,3.9145,3.9118,3.9222,3.9243,3.9336,3.9365,3.9385,3.9404,3.9371,3.9501,3.9514,3.9525,3.9568,3.9584,3.9388,3.9388,3.9387,3.9387,0,3.8998,3.905,3.9098,3.9144,3.9176,3.9238,3.9242,3.9276,3.9268,3.9277,3.9354,3.9379,3.9429,3.9451,3.9444,3.9544,3.9529,3.9502,3.9453,3.9546,3.9586,3.9602,3.9394,3.9392,3.9391,3.939,0,0,3.9136,3.9179,3.9196,3.9218,3.9255,3.9296,3.9358,3.9407,3.9437,3.9471,3.9524,3.9596,3.9572,3.9599,3.9595,3.9641,3.9736,3.9608,3.9609,3.9633,3.9851,3.9873,3.9891,3.9724,3.9727,3.9729,3.9849,0,3.9245,3.9351,3.9348,3.9447,3.9497,3.9474,3.9528,3.9558,3.9568,3.9613,3.9625,3.9676,3.9639,3.9657,3.97,3.9715,3.978,3.9706,3.9775,3.9778,3.9769,3.9912,3.9934,4.0046,3.9865,3.9867,3.9869,0,3.9385,3.9425,3.9529,3.9561,3.9582,3.963,3.9677,3.972,3.9754,3.9758,3.9791,3.978,3.9845,3.9794,3.9885,3.9835,3.9863,3.9875,3.9879,3.9887,3.983,3.9925,4.0081,4.0098,3.9893,3.9891,3.9889,0,3.9478,3.9557,3.9631,3.965,3.9688,3.9723,3.9741,3.9772,3.9803,3.9844,3.9864,3.9913,3.994,3.9978,3.9982,3.9944,4.0075,4.0024,4.0082,4.0083,4.0111,4.011,4.0276,4.0127,4.0127,4.0127,4.0126,0,3.9601,3.9667,3.9673,3.9719,3.9792,3.9789,3.9863,3.9877,3.9906,3.9955,3.9938,3.9986,3.9987,4.0036,4.0039,4.0116,4.0127,4.0135,4.0135,4.0137,4.0137,4.0156,4.0149,4.0131,4.013,4.0129,4.0128,0,3.9717,3.9724,3.9803,3.9833,3.9842,3.9896,3.9923,3.9967,3.9976,4.0039,4.0054,4.0069,4.0126,4.0134,4.02,4.0203,4.0295,4.0287,4.0284,4.0283,4.0342,4.0337,4.0528,4.0554,4.0387,4.0388,4.0389,0,3.9796,3.9846,3.9882,3.9914,3.9934,3.9984,4.0016,4.0016,4.005,4.0094,4.0134,4.0189,4.0233,4.0326,4.0344,4.0395,4.0389,4.0453,4.0397,4.0398,4.0393,4.039,4.0397,4.0464,4.0465,4.0467,4.0468,0,3.9936,3.9937,3.9983,4.0031,4.0069,4.0106,4.0142,4.0169,4.0173,4.0213,4.0271,4.0305,4.0374,4.043,4.0481,4.0502,4.0487,4.0486,4.0502,4.0506,4.0503,4.0507,4.0315,4.0481,4.048,4.0479,4.0478,4.0478,4.0037,4.0082,4.0115,4.0167,4.0193,4.0228,4.0272,4.0287,4.0335,4.039,4.0387,4.0452,4.0488,4.0555,4.0579,4.0631,4.061,4.0634,4.064,4.0647,4.0654,4.0493,4.064,4.064,4.064,4.0639,4.0639,0,4.0178,4.0198,4.0246,4.0297,4.0339,4.032,4.0359,4.0396,4.0453,4.0487,4.0531,4.0599,4.0654,4.0677,4.0731,4.0769,4.0764,4.0783,4.0781,4.0787,4.0668,4.0649,4.0787,4.0787,4.0787,4.0786,4.0786,4.0786,4.0256,4.0332,4.0337,4.0426,4.0447,4.0509,4.0534,4.0566,4.0593,4.067,4.0715,4.0729,4.076,4.0817,4.0867,4.0873,4.0895,4.0918,4.0921,4.081,4.0795,4.0781,4.0763,4.0922,4.0922,4.1036,4.1037,4.1038]},{"header":{"parameterUnit":"m.s-1","parameterCategory":1,"la1":30.2991,"la2":30.254,"lo1":-89.0895,"lo2":-89.0444,"dy":0.0017,"dx":0.0017,"nx":28,"ny":28,"refTime":"2023-08-15T03:00:00:Z","depth":0,"parameterNumber":3,"parameterNumberName":"V-component_of_WINDS"},"data":[0,0,0,0,0,0,0,0,0,0,0,0,0,0,0,0,0,0,0,0,0,0,0,0,0,0,0,0,0,0,0,0,0,0,0,0,0,0,0,0,0,0,0,0,0,0,0,0,0,0,0,0,0,0,0,0,0,0,-0.9116,-0.9116,0,-0.9122,-0.9122,-0.9122,-0.9131,-0.9131,-0.9132,-0.9132,-0.9137,-0.9137,-0.9137,0,0,0,0,0,0,0,0,0,0,0,0,0,-0.9114,-0.9114,-0.9116,-0.9116,-0.9116,-0.9122,-0.9122,-0.9122,-0.9131,-0.9131,-0.9132,-0.9132,-0.9137,-0.9137,-0.9137,0,0,0,0,0,0,0,0,0,0,0,0,0,-0.9117,-0.9114,-0.9116,-0.9121,-0.9122,-0.9121,-0.9122,-0.9122,-0.9131,-0.9131,-0.9132,-0.9132,-0.9137,-0.9137,-0.9137,-0.9132,0,0,-0.9137,-0.9137,0,0,0,0,0,0,0,0,-0.9117,-0.9117,-0.9121,-0.9121,-0.9122,-0.9126,-0.9123,-0.9125,-0.9131,-0.9128,-0.9132,-0.9132,-0.9133,-0.9134,-0.9134,-0.9132,-0.9132,-0.9137,-0.9137,-0.9137,-0.9137,0,0,0,0,0,0,0,-0.9117,-0.9117,-0.9118,-0.9121,-0.9121,-0.9124,-0.9125,-0.9123,-0.9129,-0.9128,-0.9129,-0.9129,-0.9134,-0.9134,-0.9134,-0.9132,-0.9137,-0.9137,-0.9137,-0.9137,-0.9127,-0.9127,0,0,0,0,0,0,-0.9116,-0.9117,-0.9118,-0.9118,-0.912,-0.9124,-0.9125,-0.9124,-0.9129,-0.913,-0.9129,-0.913,-0.9134,-0.9134,-0.9134,-0.9129,-0.9137,-0.9137,-0.9137,-0.9128,-0.9127,-0.9127,0,0,0,0,0,0,-0.9116,-0.9116,-0.9118,-0.9118,-0.9118,-0.9124,-0.9123,-0.9124,-0.9125,-0.913,-0.9131,-0.9128,-0.9134,-0.9134,-0.9133,-0.9129,-0.9137,-0.9137,-0.9128,-0.9128,-0.9127,-0.9118,0,0,0,0,0,0,-0.9115,-0.9116,-0.9113,-0.9118,-0.9118,-0.9115,-0.9123,-0.9124,-0.9125,-0.9126,-0.9129,-0.913,-0.9134,-0.9133,-0.9133,-0.9129,-0.9137,-0.9128,-0.9128,-0.9127,-0.9118,-0.9117,-0.9116,0,0,0,0,0,-0.9115,-0.911,-0.9113,-0.9113,-0.9115,-0.9115,-0.9116,-0.912,-0.9124,-0.9122,-0.9126,-0.913,-0.913,-0.9132,-0.9132,-0.9129,-0.9128,-0.9128,-0.9127,-0.9119,-0.9117,-0.9116,0,0,0,0,0,0,-0.9104,-0.911,-0.9114,-0.911,-0.9112,-0.9117,-0.9114,-0.9119,-0.912,-0.912,-0.9126,-0.9127,-0.9125,-0.9127,-0.9129,-0.9125,-0.913,-0.9129,-0.9124,-0.9122,-0.9121,-0.9121,-0.9137,0,0,0,0,0,-0.9102,-0.9101,-0.9106,-0.9102,-0.9103,-0.9109,-0.9109,-0.9113,-0.9115,-0.9116,-0.9119,-0.9121,-0.9122,-0.9122,-0.9123,-0.9119,-0.9121,-0.9117,-0.9116,-0.9115,-0.9114,-0.9114,-0.9113,-0.9125,-0.9125,-0.9125,0,0,-0.9095,-0.9099,-0.9098,-0.91,-0.9102,-0.9102,-0.9109,-0.9108,-0.9108,-0.9116,-0.9114,-0.9117,-0.912,-0.9118,-0.9117,-0.9119,-0.9111,-0.9114,-0.9113,-0.9113,-0.9113,-0.9112,-0.9111,-0.9125,-0.9125,-0.9125,0,0,-0.9084,-0.9087,-0.9084,-0.9086,-0.909,-0.9094,-0.9093,-0.9098,-0.91,-0.9099,-0.9105,-0.9105,-0.9106,-0.9108,-0.9109,-0.9101,-0.9105,-0.9101,-0.9095,-0.9094,-0.9093,-0.9092,-0.909,-0.9089,-0.9101,-0.91,-0.91,0,-0.9076,-0.9076,-0.9082,-0.9081,-0.9082,-0.909,-0.9087,-0.9089,-0.9093,-0.9094,-0.9097,-0.9099,-0.9101,-0.91,-0.9098,-0.9099,-0.9099,-0.91,-0.9093,-0.9092,-0.9091,-0.9089,-0.9088,-0.91,-0.91,-0.91,-0.91,0,-0.9066,-0.9066,-0.9064,-0.9067,-0.9068,-0.9067,-0.9073,-0.9073,-0.9077,-0.9081,-0.9081,-0.9084,-0.9086,-0.9086,-0.909,-0.9086,-0.9088,-0.9092,-0.9097,-0.909,-0.9088,-0.9087,-0.9099,-0.9099,-0.91,-0.91,0,0,-0.9047,-0.9056,-0.9055,-0.9057,-0.9062,-0.9062,-0.9062,-0.9064,-0.9065,-0.9067,-0.9067,-0.9068,-0.9073,-0.9074,-0.9078,-0.9078,-0.9072,-0.9082,-0.9082,-0.908,-0.9069,-0.9066,-0.9065,-0.9075,-0.9075,-0.9075,-0.9069,0,-0.9038,-0.9037,-0.9043,-0.904,-0.9041,-0.9049,-0.9048,-0.9052,-0.9055,-0.9057,-0.9061,-0.9062,-0.9067,-0.9068,-0.9068,-0.9073,-0.907,-0.9073,-0.9076,-0.9076,-0.9075,-0.9064,-0.906,-0.9054,-0.9068,-0.9068,-0.9068,0,-0.9026,-0.9028,-0.9026,-0.9033,-0.9033,-0.9032,-0.9036,-0.9037,-0.9041,-0.9044,-0.9047,-0.9052,-0.9053,-0.9058,-0.9059,-0.9061,-0.9063,-0.9065,-0.9065,-0.9066,-0.9071,-0.9064,-0.9052,-0.9052,-0.9067,-0.9067,-0.9067,0,-0.9013,-0.9016,-0.9015,-0.9017,-0.9024,-0.9024,-0.9027,-0.9032,-0.9034,-0.9037,-0.9038,-0.9041,-0.9043,-0.9046,-0.9052,-0.9055,-0.9053,-0.9058,-0.9056,-0.9056,-0.9055,-0.9055,-0.9043,-0.9056,-0.9056,-0.9056,-0.9056,0,-0.9001,-0.9,-0.901,-0.9009,-0.9008,-0.9016,-0.9015,-0.9018,-0.9023,-0.9024,-0.9031,-0.9032,-0.904,-0.9042,-0.9047,-0.9048,-0.9049,-0.9052,-0.9053,-0.9051,-0.9051,-0.9052,-0.9053,-0.9055,-0.9055,-0.9055,-0.9055,0,-0.8987,-0.8993,-0.8993,-0.9001,-0.9003,-0.9002,-0.9008,-0.9009,-0.9013,-0.9015,-0.9015,-0.9023,-0.9026,-0.9033,-0.9037,-0.9041,-0.9041,-0.9043,-0.9039,-0.904,-0.9037,-0.9038,-0.9026,-0.9026,-0.9038,-0.9038,-0.9038,0,-0.8979,-0.8978,-0.8986,-0.8987,-0.899,-0.8992,-0.8994,-0.9002,-0.9004,-0.901,-0.9009,-0.9013,-0.9016,-0.9021,-0.9027,-0.9031,-0.9033,-0.9029,-0.9034,-0.9032,-0.9034,-0.9034,-0.9034,-0.9028,-0.9028,-0.9028,-0.9028,0,-0.8965,-0.8968,-0.8971,-0.8975,-0.8977,-0.8981,-0.8985,-0.8985,-0.8994,-0.8996,-0.8999,-0.9002,-0.9007,-0.9011,-0.9016,-0.902,-0.9026,-0.9026,-0.9026,-0.9024,-0.9022,-0.9024,-0.9036,-0.9026,-0.9027,-0.9027,-0.9027,-0.9027,-0.8953,-0.8953,-0.8959,-0.8962,-0.8966,-0.897,-0.8971,-0.8977,-0.898,-0.8985,-0.8989,-0.8992,-0.8998,-0.9006,-0.9009,-0.9012,-0.9015,-0.9014,-0.9014,-0.9014,-0.9014,-0.9022,-0.9013,-0.9013,-0.9013,-0.9013,-0.9013,0,-0.894,-0.8944,-0.8947,-0.8953,-0.8956,-0.8961,-0.8966,-0.8968,-0.8971,-0.8976,-0.8979,-0.8984,-0.8988,-0.8995,-0.9,-0.9001,-0.9004,-0.9002,-0.9002,-0.9003,-0.9011,-0.9011,-0.9,-0.9,-0.9,-0.9,-0.9,-0.9,-0.8933,-0.8934,-0.8939,-0.8942,-0.8946,-0.895,-0.8952,-0.8956,-0.896,-0.8965,-0.8969,-0.8973,-0.898,-0.8985,-0.899,-0.8992,-0.8994,-0.8991,-0.8994,-0.9001,-0.9002,-0.9003,-0.9003,-0.8991,-0.8991,-0.8986,-0.8986,-0.8986]}]]